Location: Beaurecueil
(43.5122°N, 5.5450°E)
Time: 02:53:06
(UTC+00:00)

Meteor 1-21 - Pass Details

Date: 23 June 2021
Orbit: 846 x 885 km, 81.2° (Epoch: 03 August)

Event Time Altitude Azimuth Distance (km) Brightness Sun altitude
Rises 20:58:36 0° 237° (WSW) 3,418 7.4 -13.5°
Reaches altitude 10° 21:01:59 10° 258° (WSW) 2,481 7.0 -13.9°
Maximum altitude 21:05:27 17° 296° (WNW) 2,053 7.1 -14.2°
Drops below altitude 10° 21:08:57 10° 335° (NNW) 2,481 8.0 -14.6°
Sets 21:12:21 0° 356° (N) 3,419 8.4 -15.0°
